Tracking 29892 objects as of 21-Nov-2024
HD Live streaming from Space Station
objects crossing your sky now

COSMOS 1320

Track COSMOS 1320 now!
10-day predictions
COSMOS 1320 is classified as:


NORAD ID: 12975
Int'l Code: 1981-116A
Perigee: 1,488.2 km
Apogee: 1,641.6 km
Inclination: 74.0 °
Period: 117.3 minutes
Semi major axis: 7935 km
RCS: 0.704 m2 (medium)
Launch date: November 28, 1981
Source: Commonwealth of Independent States (former USSR) (CIS)
Launch site: PLESETSK MISSILE AND SPACE COMPLEX (PKMTR)
Your satellite tracking list
Your tracking list is empty




NASA's NSSDC Master Catalog

Two Line Element Set (TLE):
1 12975U 81116A   24325.82147279  .00000004  00000-0  16236-3 0  9992
2 12975  73.9833  73.4701 0096651  20.0419 142.6604 12.28035943926775
Source of the keplerian elements: AFSPC